GW1638 Weather Reports


Display with metric or nautical units.
time (UTC)temp
F
wind
direction
speed
MPH
gust
MPH
rain 1hr
in
rain 24hr
in
rain mn
in
humidity
%
barometer
mb
20260504022440 48 5 0.0 0.0 0.00 0.00 0.00 56 1012.3
20260504021937 49 3 1.0 1.0 0.00 0.00 0.00 56 1012.1
20260504021435 49 357 1.0 1.0 0.00 0.00 0.00 56 1012.2
20260504020932 48 10 0.0 0.0 0.00 0.00 0.00 57 1012.2
20260504020428 48 2 0.0 0.0 0.00 0.00 0.00 56 1012.2
20260504015925 48 13 0.0 0.0 0.00 0.00 0.00 57 1012.3
20260504015421 49 13 0.0 0.0 0.00 0.00 0.00 56 1012.3
20260504014917 49 351 1.0 1.0 0.00 0.00 0.00 55 1012.2
20260504014413 50 1 1.0 1.0 0.00 0.00 0.00 54 1012.3
20260504013910 49 2 0.0 0.0 0.00 0.00 0.00 55 1012.0
20260504013409 50 7 0.0 0.0 0.00 0.00 0.00 55 1012.1
20260504012904 50 349 0.0 0.0 0.00 0.00 0.00 54 1012.1
20260504012403 50 7 0.0 0.0 0.00 0.00 0.00 54 1012.0
20260504011859 50 344 1.0 1.0 0.00 0.00 0.00 54 1012.0
20260504011356 51 8 1.0 1.0 0.00 0.00 0.00 53 1011.9
20260504010852 50 335 2.0 2.0 0.00 0.00 0.00 53 1012.0
20260504010348 51 9 0.0 0.0 0.00 0.00 0.00 52 1011.9
20260504005845 51 14 0.0 0.0 0.00 0.00 0.00 52 1012.1
20260504005341 51 352 1.0 1.0 0.00 0.00 0.00 52 1012.1
20260504004839 51 5 0.0 0.0 0.00 0.00 0.00 52 1011.9
20260504004337 52 310 3.0 3.0 0.00 0.00 0.00 50 1011.8
20260504003833 52 329 1.0 1.0 0.00 0.00 0.00 51 1011.8
20260504003330 52 356 0.0 0.0 0.00 0.00 0.00 50 1011.9
20260504002827 52 354 2.0 2.0 0.00 0.00 0.00 50 1011.9
20260504002323 53 318 1.0 1.0 0.00 0.00 0.00 50 1011.8
20260504001821 53 295 2.0 2.0 0.00 0.00 0.00 49 1011.8
20260504001318 53 340 1.0 1.0 0.00 0.00 0.00 48 1011.9
20260504000815 53 319 3.0 3.0 0.00 0.00 0.00 49 1012.0
20260504000312 53 263 4.0 4.0 0.00 0.00 0.00 48 1012.0
20260503235810 53 294 1.0 2.0 0.00 0.00 0.00 49 1011.8
20260503235307 54 329 1.0 1.0 0.00 0.00 0.00 48 1012.1
20260503234805 54 328 1.0 1.0 0.00 0.00 0.00 48 1011.9
20260503234302 54 347 2.0 2.0 0.00 0.00 0.00 47 1011.9
20260503233800 55 236 2.0 3.0 0.00 0.00 0.00 46 1011.9
20260503233255 54 14 3.0 3.0 0.00 0.00 0.00 46 1011.7
20260503232752 55 280 6.0 8.0 0.00 0.00 0.00 45 1011.9
20260503232250 55 352 1.0 1.0 0.00 0.00 0.00 47 1011.9
20260503231747 55 249 4.0 4.0 0.00 0.00 0.00 45 1011.9
20260503231244 55 351 3.0 3.0 0.00 0.00 0.00 45 1011.9
20260503230740 55 284 4.0 6.0 0.00 0.00 0.00 45 1011.8
20260503230238 55 274 2.0 3.0 0.00 0.00 0.00 47 1011.9
20260503225735 55 253 6.0 8.0 0.00 0.00 0.00 44 1011.9
20260503225235 55 322 2.0 2.0 0.00 0.00 0.00 45 1012.0
20260503224732 56 359 3.0 3.0 0.00 0.00 0.00 43 1011.8
20260503224230 56 239 4.0 4.0 0.00 0.00 0.00 43 1012.1
20260503223727 57 272 4.0 4.0 0.00 0.00 0.00 41 1011.9
20260503223225 57 250 4.0 6.0 0.00 0.00 0.00 41 1011.9
20260503222721 58 319 5.0 6.0 0.00 0.00 0.00 40 1012.0
20260503222219 59 228 5.0 7.0 0.00 0.00 0.00 41 1012.0
20260503221717 58 299 6.0 10.0 0.00 0.00 0.00 42 1012.0
20260503221215 57 247 5.0 6.0 0.00 0.00 0.00 42 1012.1
20260503220711 57 254 4.0 6.0 0.00 0.00 0.00 44 1012.1
20260503220208 58 160 5.0 6.0 0.00 0.00 0.00 42 1012.0
20260503215704 59 287 7.0 10.0 0.00 0.00 0.00 40 1011.9
20260503215201 59 191 4.0 6.0 0.00 0.00 0.00 44 1011.9
20260503214700 58 258 6.0 7.0 0.00 0.00 0.00 42 1012.0
20260503214155 58 249 14.0 17.0 0.00 0.00 0.00 41 1011.9
20260503213655 57 205 5.0 6.0 0.00 0.00 0.00 42 1012.0
20260503213151 58 253 9.0 11.0 0.00 0.00 0.00 40 1011.9
20260503212648 57 323 3.0 4.0 0.00 0.00 0.00 41 1011.8
20260503212146 58 288 5.0 7.0 0.00 0.00 0.00 41 1011.6
20260503211644 59 176 8.0 10.0 0.00 0.00 0.00 40 1012.0
20260503211138 58 285 4.0 6.0 0.00 0.00 0.00 42 1011.9
20260503210635 58 250 6.0 7.0 0.00 0.00 0.00 42 1011.9
20260503210132 59 244 3.0 3.0 0.00 0.00 0.00 45 1011.8
20260503205628 57 282 7.0 8.0 0.00 0.00 0.00 43 1011.9
20260503205124 56 199 6.0 10.0 0.00 0.00 0.00 42 1012.0
20260503204621 56 199 6.0 8.0 0.00 0.00 0.00 44 1012.2
20260503204119 58 153 5.0 8.0 0.00 0.00 0.00 41 1012.2
20260503203616 58 265 4.0 4.0 0.00 0.00 0.00 42 1012.1
20260503203113 58 236 3.0 4.0 0.00 0.00 0.00 43 1012.0
20260503202610 58 278 1.0 1.0 0.00 0.00 0.00 41 1012.3
20260503202108 59 235 6.0 8.0 0.00 0.00 0.00 40 1012.2
20260503201606 58 278 3.0 6.0 0.00 0.00 0.00 45 1012.3
20260503201103 57 271 4.0 6.0 0.00 0.00 0.00 44 1012.3
20260503200559 57 245 5.0 6.0 0.00 0.00 0.00 45 1012.4
20260503200056 58 83 3.0 3.0 0.00 0.00 0.00 43 1012.3
20260503195553 58 290 7.0 10.0 0.00 0.00 0.00 43 1012.6
20260503195050 58 301 4.0 7.0 0.00 0.00 0.00 47 1012.6
20260503194547 56 109 4.0 6.0 0.00 0.00 0.00 45 1012.6
20260503194047 58 299 6.0 8.0 0.00 0.00 0.00 43 1012.7
20260503193544 57 279 6.0 9.0 0.00 0.00 0.00 44 1012.8
20260503193044 57 246 6.0 7.0 0.00 0.00 0.00 45 1013.1
20260503192541 56 239 4.0 6.0 0.00 0.00 0.00 45 1012.9
20260503192037 56 319 2.0 4.0 0.00 0.00 0.00 42 1013.1
20260503191534 57 262 5.0 7.0 0.00 0.00 0.00 46 1013.1
20260503191031 57 189 8.0 9.0 0.00 0.00 0.00 43 1013.5
20260503190527 56 274 7.0 8.0 0.00 0.00 0.00 46 1013.2
20260503190025 55 245 7.0 9.0 0.00 0.00 0.00 46 1013.5
20260503185521 56 1 10.0 14.0 0.00 0.00 0.00 45 1013.4
20260503185020 56 3 7.0 10.0 0.00 0.00 0.00 45 1013.5
20260503184517 57 253 8.0 9.0 0.00 0.00 0.00 46 1013.5
20260503184014 57 288 9.0 11.0 0.00 0.00 0.00 43 1013.8
20260503183510 57 258 5.0 6.0 0.00 0.00 0.00 45 1013.8
20260503183007 55 272 11.0 14.0 0.00 0.00 0.00 45 1013.8
20260503182506 56 233 13.0 17.0 0.00 0.00 0.00 46 1013.8
20260503182004 55 234 7.0 11.0 0.00 0.00 0.00 46 1013.9
20260503181500 55 278 5.0 6.0 0.00 0.00 0.00 46 1014.0
20260503180956 55 243 9.0 13.0 0.00 0.00 0.00 47 1014.0
20260503180454 55 292 10.0 13.0 0.00 0.00 0.00 46 1013.9
20260503175951 55 282 9.0 10.0 0.00 0.00 0.00 47 1014.2
20260503175449 55 265 8.0 9.0 0.00 0.00 0.00 46 1014.2
20260503174945 55 211 4.0 4.0 0.00 0.00 0.00 48 1014.4
20260503174443 54 287 6.0 7.0 0.00 0.00 0.00 52 1014.3
20260503173938 53 210 6.0 8.0 0.00 0.00 0.00 48 1014.4
20260503173434 54 309 3.0 4.0 0.00 0.00 0.00 47 1014.4
20260503172931 55 241 6.0 8.0 0.00 0.00 0.00 48 1014.5
20260503172428 54 205 4.0 6.0 0.00 0.00 0.00 49 1014.4
20260503171925 54 63 3.0 6.0 0.00 0.00 0.00 47 1014.6
20260503171421 52 289 7.0 8.0 0.00 0.00 0.00 47 1014.5
20260503170919 52 277 6.0 7.0 0.00 0.00 0.00 47 1014.4
20260503170415 53 189 4.0 8.0 0.00 0.00 0.00 51 1014.6
20260503150807 49 266 8.0 11.0 0.00 0.00 0.00 53 1015.3
20260503150303 48 241 9.0 10.0 0.00 0.00 0.00 50 1015.4
20260503140228 46 349 2.0 3.0 0.00 0.00 0.00 67 1015.7
20260503131157 43 146 4.0 4.0 0.00 0.00 0.00 73 1015.8
20260503130655 42 315 6.0 8.0 0.00 0.00 0.00 75 1015.8
20260503130152 42 296 6.0 7.0 0.00 0.00 0.00 75 1015.7
20260503120118 37 348 1.0 1.0 0.00 0.00 0.00 88 1015.6
20260503110545 32 306 1.0 1.0 0.00 0.00 0.00 94 1015.0
20260503090432 31 10 0.0 0.0 0.00 0.00 0.00 93 1014.6
20260503081358 31 265 1.0 2.0 0.00 0.00 0.00 95 1014.5
20260503080855 31 276 2.0 2.0 0.00 0.00 0.00 95 1014.6
20260503080352 31 9 0.0 1.0 0.00 0.00 0.00 95 1014.5
20260503072828 32 13 0.0 0.0 0.00 0.00 0.00 93 1014.2
20260503072325 32 13 0.0 0.0 0.00 0.00 0.00 93 1014.2
20260503071821 33 10 0.0 0.0 0.00 0.00 0.00 93 1014.2
20260503071319 33 7 0.0 0.0 0.00 0.00 0.00 92 1014.2
20260503070815 33 14 0.0 0.0 0.00 0.00 0.00 92 1014.3
20260503070313 33 15 0.0 0.0 0.00 0.00 0.00 91 1014.2
20260503060238 34 359 0.0 0.0 0.00 0.00 0.00 92 1014.2
20260503054725 35 8 0.0 0.0 0.00 0.00 0.00 92 1014.3
20260503054222 34 10 0.0 0.0 0.00 0.00 0.00 92 1014.5
20260503053720 34 8 0.0 0.0 0.00 0.00 0.00 92 1014.7
20260503053219 34 13 0.0 0.0 0.00 0.00 0.00 92 1014.5
20260503052714 34 5 0.0 0.0 0.00 0.00 0.00 92 1014.5
20260503052211 34 4 0.0 0.0 0.00 0.00 0.00 92 1014.7
20260503051706 34 8 0.0 0.0 0.00 0.00 0.00 91 1014.8
20260503051204 34 12 0.0 0.0 0.00 0.00 0.00 91 1014.5
20260503050700 34 9 0.0 0.0 0.00 0.00 0.00 91 1014.6
20260503050157 34 14 0.0 0.0 0.00 0.00 0.00 91 1014.8
20260503045655 34 9 0.0 0.0 0.00 0.00 0.00 90 1014.9
20260503045152 34 6 0.0 0.0 0.00 0.00 0.00 90 1014.7
20260503044648 34 31 0.0 0.0 0.00 0.00 0.00 91 1014.7
20260503044146 34 13 0.0 0.0 0.00 0.00 0.00 92 1014.8
20260503043642 34 13 0.0 0.0 0.00 0.00 0.00 92 1014.7
20260503043140 33 7 0.0 0.0 0.00 0.00 0.00 93 1014.8
20260503042636 33 7 0.0 0.0 0.00 0.00 0.00 93 1014.8
20260503042132 33 7 0.0 0.0 0.00 0.00 0.00 93 1014.7
20260503041629 34 0 0.0 0.0 0.00 0.00 0.00 93 1014.7
20260503041127 34 5 0.0 0.0 0.00 0.00 0.00 92 1014.9
20260503040624 34 9 0.0 0.0 0.00 0.00 0.00 92 1014.8
20260503040121 33 10 0.0 0.0 0.00 0.06 0.06 91 1014.7
20260503035617 33 11 0.0 0.0 0.00 0.06 0.06 91 1014.8
20260503035115 34 4 0.0 0.0 0.00 0.06 0.06 91 1014.8
20260503034612 34 1 0.0 0.0 0.00 0.06 0.06 90 1014.8
20260503034110 34 10 0.0 0.0 0.00 0.06 0.06 89 1014.8
20260503033607 35 11 0.0 0.0 0.00 0.06 0.06 88 1014.8
20260503033104 35 13 0.0 0.0 0.00 0.06 0.06 88 1014.7
20260503032603 35 15 0.0 0.0 0.00 0.06 0.06 88 1014.8
20260503032100 35 15 0.0 0.0 0.00 0.06 0.06 87 1014.8
20260503031558 36 16 0.0 0.0 0.00 0.06 0.06 87 1014.8
20260503031055 36 15 0.0 0.0 0.00 0.06 0.06 86 1014.7
20260503030551 36 15 0.0 0.0 0.00 0.06 0.06 86 1014.8
20260503030048 37 13 0.0 0.0 0.00 0.06 0.06 86 1014.9
20260503025545 37 10 0.0 0.0 0.00 0.06 0.06 86 1014.7
20260503025043 37 6 0.0 0.0 0.00 0.06 0.06 86 1014.8
20260503024538 37 4 0.0 0.0 0.00 0.06 0.06 85 1014.9
20260503024036 37 13 0.0 0.0 0.00 0.06 0.06 86 1015.0
20260503023532 37 13 0.0 0.0 0.00 0.06 0.06 86 1015.0
20260503023030 36 10 0.0 1.0 0.00 0.06 0.06 86 1015.0